Regional Weather Roundup
Issued by NWS

Home | Current Version | Previous Version | Graphics & Text | Print | Product List | Glossary On
Versions: 1 2 3 4 5 6 7 8 9 10 11 12 13 14 15 16 17 18 19 20 21 22 23 24 25 26 27 28 29 30 31 32 33 34 35 36 37 38 39 40 41 42 43 44 45 46 47 48 49 50
000
ASUS43 KOAX 250802
RWRNE

WEATHER ROUNDUP FOR NEBRASKA
NATIONAL WEATHER SERVICE OMAHA NE
300 AM CDT FRI JUL 25 2014

NOTES: SATELLITE DATA IS BEING USED TO AUGMENT CLOUD COVER ABOVE
       12000 FEET.
       "FAIR" INDICATES FEW OR NO CLOUDS BELOW 12,000 FEET WITH NO
       SIGNIFICANT WEATHER AND/OR OBSTRUCTIONS TO VISIBILITY.

  * THESE STATIONS DO NOT REPORT WEATHER SUCH AS RAIN...SNOW OR FOG.

NEZ001>004-019>022-054>056-250900-
NEBRASKA PANHANDLE

CITY           SKY/WX    TMP DP  RH WIND       PRES   REMARKS
SCOTTSBLUFF    CLEAR     81  52  36 VRB7G23   29.89F
ALLIANCE       CLEAR     69  53  56 W6        29.87S
CHADRON        CLEAR     75  54  47 W10       29.80R
KIMBALL        PTCLDY    69  55  60 W10       29.99S
SIDNEY         PTCLDY    69  54  58 W8        29.95F
$$

NEZ057>060-069>072-079>082-250900-
SOUTHWEST NEBRASKA

CITY           SKY/WX    TMP DP  RH WIND       PRES   REMARKS
NORTH PLATTE   PTCLDY    77  61  57 VRB5      29.82R
IMPERIAL       CLEAR     70  58  65 NW13      29.85F
LEXINGTON      CLOUDY    81  71  71 SE14G21   29.81F
MCCOOK         PTCLDY    76  57  51 S10       29.81F
OGALLALA       CLEAR     61  58  90 CALM      29.86F
$$

NEZ005>010-023>029-035>040-094-250900-
NORTH CENTRAL NEBRASKA

CITY           SKY/WX    TMP DP  RH WIND       PRES   REMARKS
VALENTINE      PTCLDY    74  61  63 SW13      29.73F
AINSWORTH      PTCLDY    71  69  94 S12       29.75F
BROKEN BOW     PTCLDY    80  70  71 S16G28    29.77F
O`NEILL        CLEAR     75  67  74 S16G22    29.73F
ORD            PTCLDY    73  67  81 SE13      29.77F
THEDFORD       PTCLDY    68  63  82 CALM      29.80F
$$

NEZ041-046>049-061>064-073>077-083>087-250900-
SOUTH CENTRAL NEBRASKA

CITY           SKY/WX    TMP DP  RH WIND       PRES   REMARKS
GRAND ISLAND   MOCLDY    76  68  76 SE15G22   29.80F
AURORA         MOCLDY    74  70  86 SE10      29.82F
HASTINGS       CLOUDY    78  66  66 SE8       29.86F
HEBRON         CLOUDY    77  66  69 S6        29.86R
HOLDREGE       CLOUDY    79  69  71 SE9       29.83F
KEARNEY *      CLOUDY    77  68  73 E10       29.85F
YORK           CLOUDY    73  68  83 SE12      29.85F
$$

NEZ011>018-030>034-042>045-250900-
NORTHEAST NEBRASKA

CITY           SKY/WX    TMP DP  RH WIND       PRES   REMARKS
NORFOLK        CLOUDY    73  67  81 S18       29.73F
ALBION         MOCLDY    73  66  78 S16G23    29.77F
BLAIR          LGT RAIN  73  67  80 S20G32    29.76F
COLUMBUS *     CLOUDY    75  66  73 S18G25    29.78F
FREMONT        CLOUDY    80  69  69 S20G28    29.76F
TEKAMAH        CLOUDY    79  67  66 SW22G31   29.72F
WAYNE          CLOUDY    76  66  71 SW13      29.72F
$$

NEZ050>053-065>068-078-088>093-250900-
SOUTHEAST NEBRASKA

CITY           SKY/WX    TMP DP  RH WIND       PRES   REMARKS
LINCOLN        CLOUDY    74  68  81 E9        29.87F
OMAHA EPPLEY   LGT RAIN  77  65  66 SW25G32   29.81F
BEATRICE       CLOUDY    75  67  76 NE3       29.87R
FALLS CITY     CLOUDY    74  59  59 S12       29.87R
NEBRASKA CITY  CLOUDY    71  60  68 N8        29.93R
PLATTSMOUTH    LGT RAIN  72  61  68 SW6       29.89F
$$

NEZ044-045-051>053-067-250900-
OMAHA AREA

CITY           SKY/WX    TMP DP  RH WIND       PRES   REMARKS
OMAHA EPPLEY   LGT RAIN  77  65  66 SW25G32   29.81F
BLAIR          LGT RAIN  73  67  80 S20G32    29.76F
FREMONT        CLOUDY    80  69  69 S20G28    29.76F
MILLARD        LGT RAIN  74  67  78 SW12      29.86F
OFFUTT AFB     LGT RAIN  73  66  80 SW10      29.86F
PLATTSMOUTH    LGT RAIN  72  61  68 SW6       29.89F
WAHOO          RAIN      73  69  87 S20       29.80F
$$



USA.gov is the U.S. government's official web portal to all federal, state and local government web resources and services.